When you browse on this site, cookies collect data to enhance your experience and personalize the content and advertising you see.
Visit our Privacy Policy to learn more. By continuing to use the site, you agree to this use of cookies and data.
  • In Latvia
  • List of Countries
  • For 7 days
  • Water Temperature
  • Satellite Maps
  • Weather Map
  • Weather Widgets
  • user-avatar
    Login

    Hourly Weather Thun

    Today, 19 July, Friday

    Time Temperature Precipitation Wind Pressure Humidity
    00:00 +16°C° 0 mm 1 mps 703 mmHg 87%
    01:00 +16°C° 0 mm 1 mps 703 mmHg 87%
    02:00 +16°C° 0 mm 1 mps 703 mmHg 88%
    03:00 +15°C° 0 mm 1 mps 703 mmHg 88%
    04:00 +15°C° 0 mm 1 mps 703 mmHg 88%
    05:00 +16°C° 0 mm 1 mps 704 mmHg 86%
    06:00 +18°C° 0 mm 1 mps 704 mmHg 84%
    07:00 +18°C° 0 mm 0 mps 705 mmHg 78%
    08:00 +20°C° 0 mm 0 mps 705 mmHg 71%
    09:00 +23°C° 0 mm 1 mps 705 mmHg 65%
    10:00 +25°C° 0 mm 1 mps 705 mmHg 59%
    11:00 +26°C° 0.1 mm 1 mps 705 mmHg 57%
    12:00 +26°C° 0.1 mm 2 mps 705 mmHg 56%
    13:00 +27°C° 0.1 mm 2 mps 705 mmHg 55%
    14:00 +27°C° 0.2 mm 2 mps 705 mmHg 56%
    15:00 +27°C° 0.2 mm 2 mps 705 mmHg 57%
    16:00 +27°C° 0.2 mm 2 mps 705 mmHg 58%
    17:00 +26°C° 0.1 mm 1 mps 705 mmHg 64%
    18:00 +25°C° 0.1 mm 1 mps 704 mmHg 71%
    19:00 +22°C° 0.1 mm 0 mps 704 mmHg 77%
    20:00 +22°C° 0 mm 1 mps 704 mmHg 81%
    21:00 +21°C° 0 mm 1 mps 704 mmHg 85%
    22:00 +19°C° 0 mm 1 mps 704 mmHg 89%
    23:00 +19°C° 0 mm 1 mps 704 mmHg 88%

    Tomorrow, 20 July, Saturday

    Time Temperature Precipitation Wind Pressure Humidity
    00:00 +18°C° 0 mm 1 mps 704 mmHg 88%
    01:00 +17°C° 0 mm 2 mps 704 mmHg 87%
    02:00 +17°C° 0 mm 2 mps 704 mmHg 86%
    03:00 +17°C° 0 mm 2 mps 704 mmHg 85%
    04:00 +17°C° 0 mm 2 mps 704 mmHg 84%
    05:00 +19°C° 0 mm 1 mps 704 mmHg 81%
    06:00 +20°C° 0 mm 1 mps 704 mmHg 79%
    07:00 +21°C° 0 mm 1 mps 704 mmHg 76%
    08:00 +23°C° 0 mm 1 mps 705 mmHg 69%
    09:00 +26°C° 0 mm 1 mps 705 mmHg 61%
    10:00 +28°C° 0 mm 1 mps 705 mmHg 54%
    11:00 +28°C° 0 mm 1 mps 706 mmHg 50%
    12:00 +29°C° 0 mm 2 mps 706 mmHg 47%
    13:00 +30°C° 0 mm 3 mps 706 mmHg 44%
    14:00 +29°C° 0.3 mm 2 mps 705 mmHg 47%
    15:00 +29°C° 0.3 mm 2 mps 705 mmHg 49%
    16:00 +29°C° 0.3 mm 2 mps 705 mmHg 52%
    17:00 +28°C° 0.2 mm 1 mps 705 mmHg 59%
    18:00 +26°C° 0.2 mm 1 mps 706 mmHg 65%
    19:00 +25°C° 0.2 mm 1 mps 706 mmHg 72%
    20:00 +23°C° 0.2 mm 1 mps 706 mmHg 75%
    21:00 +22°C° 0.2 mm 1 mps 706 mmHg 79%
    22:00 +20°C° 0.2 mm 1 mps 706 mmHg 82%
    23:00 +20°C° 0.3 mm 1 mps 706 mmHg 83%

    Day after tomorrow, 21 July, Sunday

    Time Temperature Precipitation Wind Pressure Humidity
    00:00 +19°C° 0.3 mm 1 mps 706 mmHg 85%
    01:00 +19°C° 0.3 mm 1 mps 706 mmHg 86%
    02:00 +19°C° 0.4 mm 1 mps 706 mmHg 87%
    03:00 +19°C° 0.4 mm 1 mps 706 mmHg 88%
    04:00 +18°C° 0.4 mm 1 mps 706 mmHg 89%
    05:00 +19°C° 0.1 mm 1 mps 707 mmHg 87%
    06:00 +20°C° 0.1 mm 1 mps 707 mmHg 86%
    07:00 +22°C° 0.1 mm 1 mps 708 mmHg 84%
    08:00 +23°C° 0.2 mm 1 mps 708 mmHg 78%
    09:00 +25°C° 0.2 mm 1 mps 708 mmHg 72%
    10:00 +26°C° 0.2 mm 1 mps 709 mmHg 66%
    11:00 +27°C° 0.4 mm 2 mps 709 mmHg 64%
    12:00 +27°C° 0.4 mm 2 mps 709 mmHg 63%
    13:00 +28°C° 0.4 mm 2 mps 709 mmHg 61%
    14:00 +28°C° 0.5 mm 2 mps 709 mmHg 64%
    15:00 +28°C° 0.5 mm 2 mps 709 mmHg 67%
    16:00 +27°C° 0.5 mm 1 mps 709 mmHg 71%
    17:00 +26°C° 0.6 mm 1 mps 709 mmHg 77%
    18:00 +26°C° 0.6 mm 1 mps 709 mmHg 83%
    19:00 +23°C° 0.6 mm 0 mps 709 mmHg 89%
    20:00 +23°C° 0.1 mm 1 mps 709 mmHg 90%
    21:00 +22°C° 0.1 mm 1 mps 709 mmHg 91%
    22:00 +20°C° 0.1 mm 1 mps 709 mmHg 92%
    23:00 +20°C° 0 mm 1 mps 709 mmHg 91%

    22 July, Monday

    Time Temperature Precipitation Wind Pressure Humidity
    00:00 +20°C° 0 mm 1 mps 709 mmHg 91%
    01:00 +19°C° 0 mm 1 mps 709 mmHg 90%
    02:00 +19°C° 0 mm 1 mps 709 mmHg 90%
    03:00 +19°C° 0 mm 1 mps 709 mmHg 89%
    04:00 +19°C° 0 mm 1 mps 709 mmHg 89%
    05:00 +20°C° 0 mm 1 mps 709 mmHg 88%
    06:00 +19°C° 0 mm 0 mps 710 mmHg 86%
    07:00 +21°C° 0 mm 0 mps 710 mmHg 84%
    08:00 +24°C° 0 mm 1 mps 710 mmHg 76%
    09:00 +26°C° 0 mm 1 mps 710 mmHg 68%
    10:00 +28°C° 0 mm 1 mps 711 mmHg 61%
    11:00 +29°C° 0 mm 1 mps 711 mmHg 58%
    12:00 +30°C° 0 mm 2 mps 710 mmHg 56%
    13:00 +31°C° 0 mm 2 mps 710 mmHg 54%
    14:00 +31°C° 0.2 mm 2 mps 710 mmHg 54%
    15:00 +31°C° 0.2 mm 2 mps 710 mmHg 54%
    16:00 +31°C° 0.2 mm 1 mps 709 mmHg 55%
    17:00 +29°C° 0.1 mm 1 mps 709 mmHg 62%
    18:00 +28°C° 0.1 mm 1 mps 709 mmHg 70%
    19:00 +27°C° 0.1 mm 1 mps 709 mmHg 78%
    20:00 +25°C° 0 mm 1 mps 709 mmHg 82%
    21:00 +23°C° 0 mm 1 mps 709 mmHg 85%
    22:00 +22°C° 0 mm 1 mps 709 mmHg 89%
    23:00 +21°C° 0 mm 1 mps 709 mmHg 88%

    23 July, Tuesday

    Time Temperature Precipitation Wind Pressure Humidity
    00:00 +21°C° 0 mm 1 mps 709 mmHg 87%
    01:00 +21°C° 0 mm 1 mps 708 mmHg 87%
    02:00 +21°C° 0 mm 1 mps 708 mmHg 86%
    03:00 +20°C° 0 mm 1 mps 708 mmHg 85%
    04:00 +20°C° 0 mm 1 mps 708 mmHg 84%
    05:00 +21°C° 0 mm 1 mps 708 mmHg 82%
    06:00 +21°C° 0 mm 0 mps 708 mmHg 79%
    07:00 +22°C° 0 mm 0 mps 708 mmHg 77%
    08:00 +26°C° 0 mm 1 mps 708 mmHg 70%
    09:00 +28°C° 0 mm 1 mps 709 mmHg 63%
    10:00 +29°C° 0 mm 1 mps 709 mmHg 56%
    11:00 +30°C° 0 mm 1 mps 709 mmHg 53%
    12:00 +31°C° 0 mm 2 mps 709 mmHg 50%
    13:00 +32°C° 0 mm 2 mps 708 mmHg 47%
    14:00 +32°C° 0 mm 2 mps 708 mmHg 48%
    15:00 +32°C° 0 mm 2 mps 708 mmHg 49%
    16:00 +32°C° 0 mm 2 mps 708 mmHg 50%
    17:00 +30°C° 0 mm 2 mps 707 mmHg 59%
    18:00 +29°C° 0 mm 1 mps 707 mmHg 67%
    19:00 +27°C° 0 mm 1 mps 707 mmHg 76%
    20:00 +26°C° 0 mm 1 mps 707 mmHg 79%
    21:00 +24°C° 0 mm 1 mps 707 mmHg 83%
    22:00 +23°C° 0 mm 1 mps 707 mmHg 87%
    23:00 +22°C° 0 mm 1 mps 707 mmHg 87%

    24 July, Wednesday

    Time Temperature Precipitation Wind Pressure Humidity
    00:00 +22°C° 0 mm 1 mps 707 mmHg 87%
    01:00 +22°C° 0 mm 1 mps 707 mmHg 87%
    02:00 +21°C° 0 mm 1 mps 707 mmHg 87%
    03:00 +21°C° 0 mm 1 mps 707 mmHg 86%
    04:00 +21°C° 0 mm 1 mps 707 mmHg 86%
    05:00 +22°C° 0 mm 1 mps 707 mmHg 82%
    06:00 +21°C° 0 mm 0 mps 707 mmHg 78%
    07:00 +22°C° 0 mm 0 mps 707 mmHg 74%
    08:00 +24°C° 0 mm 0 mps 707 mmHg 67%
    09:00 +28°C° 0 mm 1 mps 708 mmHg 60%
    10:00 +30°C° 0 mm 1 mps 708 mmHg 52%
    11:00 +31°C° 0 mm 1 mps 708 mmHg 48%
    12:00 +32°C° 0 mm 2 mps 708 mmHg 44%
    13:00 +34°C° 0 mm 2 mps 707 mmHg 40%
    14:00 +34°C° 0 mm 2 mps 707 mmHg 42%
    15:00 +32°C° 0 mm 2 mps 707 mmHg 43%
    16:00 +32°C° 0 mm 2 mps 707 mmHg 44%
    17:00 +31°C° 0 mm 2 mps 707 mmHg 53%
    18:00 +29°C° 0 mm 2 mps 707 mmHg 62%
    19:00 +27°C° 0 mm 1 mps 706 mmHg 70%
    20:00 +26°C° 0 mm 1 mps 706 mmHg 75%
    21:00 +24°C° 0 mm 1 mps 706 mmHg 80%
    22:00 +22°C° 0 mm 1 mps 706 mmHg 84%
    23:00 +22°C° 0 mm 1 mps 706 mmHg 84%
    Show more